Creek Data

    Home     View Charts     View Raw Data     Messages

ID Distance Battery Voltage Battery Current Internal Temp Internal Humidity External Temp Solar Input rssi snr Time Stamp Record
66428 14.9 3.88 -8 49 51 50 4.5 -73 7 02/16/2026 08:15 AM 49243
66427 14.9 3.73 -7 49 51 50 4.5 -72 8 02/16/2026 08:00 AM 49242
66426 14.9 3.72 -7 49 51 50 4.5 -73 8 02/16/2026 07:45 AM 49241
66425 14.9 3.85 -10 49 52 49 2 -73 8 02/16/2026 07:30 AM 49240
66424 14.9 3.74 -8 49 52 49 2 -74 7 02/16/2026 07:15 AM 49239
66423 15.0 3.74 -5 49 52 50 1.5 -73 7 02/16/2026 07:00 AM 49238
66422 15.0 3.88 -5 50 52 50 0 -72 7 02/16/2026 06:45 AM 49237
66421 19.8 3.74 -5 50 52 50 0.1 -73 8 02/16/2026 06:30 AM 49236
66420 15.0 3.74 -5 50 51 50 0 -73 7 02/16/2026 06:15 AM 49235
66419 15.0 3.73 -5 50 51 51 0 -74 7 02/16/2026 06:00 AM 49234
66418 15.0 3.88 -5 50 52 51 0 -74 7 02/16/2026 05:45 AM 49233
66417 15.0 3.73 -5 50 52 51 0 -74 8 02/16/2026 05:30 AM 49232
66416 15.0 3.88 -5 50 52 51 0 -74 7 02/16/2026 05:15 AM 49231
66415 15.0 3.73 -5 50 52 50 0 -74 7 02/16/2026 05:00 AM 49230
66414 15.0 3.73 -5 50 52 51 0 -73 8 02/16/2026 04:45 AM 49229
66413 15.0 3.74 -5 50 52 50 0 -74 8 02/16/2026 04:30 AM 49228
66412 15.0 3.88 -5 50 52 50 0 -74 8 02/16/2026 04:15 AM 49227
66411 15.0 3.73 -5 50 52 50 0 -73 7 02/16/2026 04:00 AM 49226
66410 15.0 3.74 -5 50 52 50 0 -74 8 02/16/2026 03:45 AM 49225
66409 15.0 3.88 -5 50 52 50 0 -74 7 02/16/2026 03:30 AM 49224
66408 12.8 3.72 -34 50 52 51 0 -74 8 02/16/2026 03:15 AM 49223
66407 15.0 3.73 -5 50 52 51 0 -74 8 02/16/2026 03:00 AM 49222
66406 15.0 3.73 -5 50 52 51 0 -74 8 02/16/2026 02:45 AM 49221
66405 15.0 3.74 -5 51 52 51 0.1 -74 7 02/16/2026 02:30 AM 49220
66404 15.0 3.88 -5 51 52 51 0 -73 7 02/16/2026 02:15 AM 49219